Overview Statistics Trail Chart Weather Telemetry Raw packets
 

This is the latest recevied weather packets stored in our database for station/object AI5BL. If no packets are shown the sender has not sent any weather packets the latest 10 day(s).

<< 77 78 79 80 81 82 83 >>
Time Temp. Humidity Pressure Rain* Wind** Luminosity Snow
1788097092 26.67° C 86% 1021.7 hPa 0 mm - 222 W/m² -
1788096787 26.11° C 87% 1021.4 hPa 0 mm - 205 W/m² -
1788096483 25.56° C 89% 1021.4 hPa 0 mm - 187 W/m² -
1788096179 26.11° C 89% 1021.4 hPa 0 mm - 167 W/m² -
1788095877 26.11° C 88% 1021.5 hPa 0 mm - 154 W/m² -
1788095572 25.56° C 91% 1021.6 hPa 0 mm - 139 W/m² -
1788095268 24.44° C 95% 1021.3 hPa 0 mm - 119 W/m² -
1788094968 23.89° C 98% 1021.5 hPa 0 mm - 98 W/m² -
1788094672 23.33° C 99% 1021.3 hPa 0 mm - 84 W/m² -
1788094357 23.33° C 99% 1021.2 hPa 0 mm - 35 W/m² -
1788094054 23.33° C 99% 1021.2 hPa 0 mm - 32 W/m² -
1788093750 22.78° C 99% 1021.3 hPa 0 mm - 30 W/m² -
1788093446 22.78° C 99% 1021 hPa 0 mm - 29 W/m² -
1788093143 22.78° C 99% 1021.3 hPa 0 mm - 28 W/m² -
1788092840 22.78° C 99% 1021 hPa 0 mm - 26 W/m² -
1788092535 22.78° C 99% 1021 hPa 0 mm - 25 W/m² -
1788092230 22.78° C 99% 1020.9 hPa 0 mm - 23 W/m² -
1788091929 22.78° C 99% 1020.8 hPa 0 mm - 21 W/m² -
1788091624 22.22° C 99% 1020.9 hPa 0 mm - 19 W/m² -
1788091321 22.22° C 99% 1020.9 hPa 0 mm - 17 W/m² -
1788091017 22.22° C 99% 1020.8 hPa 0 mm - 14 W/m² -
1788090712 22.22° C 99% 1020.9 hPa 0 mm - 12 W/m² -
1788090409 22.22° C 99% 1020.9 hPa 0 mm - 10 W/m² -
1788090108 22.22° C 99% 1020.4 hPa 0 mm - 7 W/m² -
1788089799 22.22° C 99% 1020.8 hPa 0 mm - 5 W/m² -

* Rain latest hour (hover to see other rain measurements)
** Current wind speed in m/s (hover to see current wind gust speed)